Starlink 31000

operational
NORAD ID: 58488 Int'l Des: 2023-186 Owner: SPXS Country: US Constellation: starlink
LEOCIRCULAR

About Starlink 31000

Description loading...

Live Position

Loading 3D Globe...

Upcoming Passes

Altitude History

Altitude vs Time

uPlot chart will show altitude changes over time

Two-Line Element Set

1 58488U 23186R 25304.73136258 .00001100 00000-0 96470-4 0 9994
2 58488 43.0039 48.0995 0001280 274.3285 85.7411 15.02539303106443
Epoch: Oct 31, 2025 • Age: 22 hours

Current Status

Altitude 564.4 km
Velocity 7.58 km/s
Sub-Earth Point -24.47°S, 97°E
Launch Date Dec 3, 2023
Age 1.9 years
Type internet

Technical Details

Classification Payload
Mass 730.00 kg
Dry Mass 700.00 kg
Total Mass 730.00 kg
Length 0.30 m
Diameter 4.10 m
Span 29.00 m
Shape Box + pan
Manufacturer SPXS
Bus Type Starlink V2M
Phase Status In Orbit
Owner/State SPXS/US

Large Constellations

Loading constellations...